ACA843 EDDF-CYYZ

Flight info

Callsign ACA843
Flight time N/A
Altitude 34000
Route OBOKA3W OBOKA Z28 DIBIR DCT BUDIP DCT RAVLO Y70 OTBED L60 PENIL M144 BAGSO DCT ADBUS DCT DOGAL/M084F360 DCT 54N020W 53N030W 5130N04000W 50N050W DCT ELSIR/N0480F380 N412A MIILS DCT VILRO DCT SAVEX Q806 TUKIR RAGID6
Aircraft B77W/H-SDE1E2E3FGHIJ2J3J4J5M1RWXY/LB1D1

Departure

Time 2026-05-07 03:26
Airport Frankfurt Main Airport (EDDF)

Arrival

Time N/A
Airport Toronto Pearson International Airport (CYYZ)
Time Latitude Longitude Altitude Speed Heading
2026-05-07 03:08 50.04750 8.57454 361 ft 0 kts 46°
2026-05-07 03:15 50.04749 8.57452 361 ft 2 kts 46°
2026-05-07 03:16 50.04731 8.57425 369 ft 4 kts 40°
2026-05-07 03:16 50.04709 8.57399 365 ft 4 kts 34°
2026-05-07 03:16 50.04687 8.57376 366 ft 4 kts 33°
2026-05-07 03:16 50.04677 8.57366 368 ft 1 kts 33°
2026-05-07 03:17 50.04676 8.57366 368 ft 0 kts 33°
2026-05-07 03:19 50.04677 8.57366 368 ft 0 kts 33°
2026-05-07 03:19 50.04684 8.57380 368 ft 3 kts 56°
2026-05-07 03:20 50.04672 8.57425 363 ft 6 kts 148°
2026-05-07 03:20 50.04633 8.57461 365 ft 7 kts 149°
2026-05-07 03:20 50.04592 8.57493 369 ft 7 kts 157°
2026-05-07 03:20 50.04549 8.57522 371 ft 7 kts 155°
2026-05-07 03:21 50.04508 8.57555 373 ft 7 kts 148°
2026-05-07 03:21 50.04478 8.57609 371 ft 7 kts 117°
2026-05-07 03:21 50.04471 8.57680 374 ft 7 kts 87°
2026-05-07 03:21 50.04481 8.57750 373 ft 7 kts 75°
2026-05-07 03:22 50.04494 8.57820 369 ft 7 kts 70°
2026-05-07 03:22 50.04511 8.57888 373 ft 7 kts 70°
2026-05-07 03:22 50.04527 8.57955 373 ft 7 kts 70°
2026-05-07 03:22 50.04544 8.58028 373 ft 8 kts 70°
2026-05-07 03:23 50.04563 8.58112 370 ft 8 kts 70°
2026-05-07 03:23 50.04583 8.58195 374 ft 8 kts 70°
2026-05-07 03:23 50.04604 8.58279 376 ft 8 kts 69°
2026-05-07 03:23 50.04625 8.58363 374 ft 8 kts 69°
2026-05-07 03:24 50.04645 8.58447 378 ft 8 kts 70°
2026-05-07 03:24 50.04652 8.58521 377 ft 6 kts 101°
2026-05-07 03:24 50.04621 8.58570 375 ft 7 kts 155°
2026-05-07 03:24 50.04577 8.58598 380 ft 7 kts 157°
2026-05-07 03:25 50.04534 8.58625 379 ft 6 kts 160°
2026-05-07 03:25 50.04498 8.58608 378 ft 6 kts 221°
2026-05-07 03:25 50.04477 8.58552 380 ft 6 kts 249°
2026-05-07 03:25 50.04428 8.58341 379 ft 40 kts 250°
2026-05-07 03:26 50.04227 8.57498 371 ft 126 kts 250°
2026-05-07 03:26 50.03832 8.55854 470 ft 187 kts 250°
2026-05-07 03:26 50.03348 8.53891 1111 ft 196 kts 251°
2026-05-07 03:26 50.02899 8.51966 2224 ft 191 kts 253°
2026-05-07 03:27 50.02329 8.50052 2859 ft 200 kts 236°
2026-05-07 03:27 50.01276 8.48594 3392 ft 209 kts 211°
2026-05-07 03:27 49.99864 8.47895 3923 ft 216 kts 189°
2026-05-07 03:27 49.98360 8.47611 4459 ft 220 kts 190°
2026-05-07 03:28 49.96827 8.47275 5026 ft 226 kts 190°
2026-05-07 03:28 49.95277 8.46818 5462 ft 237 kts 198°
2026-05-07 03:28 49.93665 8.46061 5977 ft 246 kts 199°
2026-05-07 03:28 49.92042 8.45166 6570 ft 248 kts 211°
2026-05-07 03:29 49.90771 8.43345 6922 ft 258 kts 240°
2026-05-07 03:29 49.89866 8.40891 7355 ft 267 kts 243°
2026-05-07 03:29 49.88971 8.38326 7967 ft 273 kts 247°
2026-05-07 03:29 49.88499 8.35497 8659 ft 273 kts 273°
2026-05-07 03:30 49.88672 8.32584 9325 ft 274 kts 279°
2026-05-07 03:30 49.88902 8.29628 10022 ft 278 kts 277°
2026-05-07 03:30 49.89183 8.26615 10445 ft 290 kts 288°
2026-05-07 03:30 49.90162 8.23772 10594 ft 309 kts 309°
2026-05-07 03:31 49.91576 8.21139 10727 ft 326 kts 311°
2026-05-07 03:31 49.93054 8.18367 10853 ft 342 kts 308°
2026-05-07 03:31 49.94536 8.15357 11166 ft 357 kts 309°
2026-05-07 03:31 49.95617 8.13397 11582 ft 364 kts 313°
2026-05-07 03:32 49.97429 8.10592 12385 ft 370 kts 318°
2026-05-07 03:32 49.99374 8.07956 13196 ft 370 kts 321°
2026-05-07 03:32 50.01386 8.05441 13691 ft 373 kts 323°
2026-05-07 03:32 50.03475 8.02947 14281 ft 382 kts 323°
2026-05-07 03:33 50.05582 8.00395 15120 ft 385 kts 322°
2026-05-07 03:33 50.07688 7.97754 15828 ft 392 kts 320°
2026-05-07 03:33 50.09797 7.95015 16697 ft 394 kts 319°
2026-05-07 03:33 50.11902 7.92212 17409 ft 402 kts 319°
2026-05-07 03:34 50.14026 7.89344 18194 ft 405 kts 318°
2026-05-07 03:34 50.16141 7.86473 18926 ft 409 kts 318°
2026-05-07 03:34 50.18302 7.83539 19566 ft 414 kts 318°
2026-05-07 03:34 50.20482 7.80582 20306 ft 417 kts 318°
2026-05-07 03:35 50.22686 7.77598 20856 ft 423 kts 318°
2026-05-07 03:35 50.24916 7.74593 21594 ft 421 kts 319°
2026-05-07 03:35 50.27382 7.72114 21967 ft 427 kts 337°
2026-05-07 03:35 50.30178 7.70580 22397 ft 426 kts 341°
2026-05-07 03:36 50.32985 7.69051 22567 ft 429 kts 337°
2026-05-07 03:36 50.35749 7.67149 22786 ft 437 kts 334°
2026-05-07 03:36 50.38515 7.65085 23369 ft 442 kts 333°
2026-05-07 03:36 50.41302 7.63020 23997 ft 444 kts 334°
2026-05-07 03:37 50.44117 7.61002 24539 ft 447 kts 335°
2026-05-07 03:37 50.46979 7.59016 25020 ft 451 kts 335°
2026-05-07 03:37 50.49859 7.57051 25541 ft 453 kts 335°
2026-05-07 03:37 50.52728 7.55090 26063 ft 456 kts 335°
2026-05-07 03:38 50.55643 7.53076 26516 ft 459 kts 334°
2026-05-07 03:38 50.58275 7.51019 26767 ft 456 kts 330°
2026-05-07 03:38 50.60970 7.48365 26950 ft 458 kts 324°
2026-05-07 03:38 50.63576 7.45402 27249 ft 464 kts 323°
2026-05-07 03:39 50.66187 7.42405 27818 ft 464 kts 324°
2026-05-07 03:39 50.68856 7.39509 28257 ft 468 kts 326°
2026-05-07 03:39 50.71602 7.36683 28626 ft 472 kts 327°
2026-05-07 03:39 50.74337 7.33827 28984 ft 469 kts 323°
2026-05-07 03:40 50.76679 7.30255 29161 ft 471 kts 306°
2026-05-07 03:40 50.78460 7.25881 29452 ft 475 kts 300°
2026-05-07 03:40 50.80061 7.21401 29603 ft 473 kts 299°
2026-05-07 03:40 50.81735 7.16955 29743 ft 469 kts 303°
2026-05-07 03:41 50.83615 7.12736 29910 ft 470 kts 307°
2026-05-07 03:41 50.85651 7.08552 30147 ft 475 kts 307°
2026-05-07 03:41 50.87612 7.04428 30470 ft 476 kts 306°
2026-05-07 03:41 50.89537 7.00159 30833 ft 476 kts 304°
2026-05-07 03:42 50.91428 6.95844 31197 ft 477 kts 304°
2026-05-07 03:42 50.93318 6.91524 31523 ft 477 kts 304°
2026-05-07 03:42 50.95217 6.87195 31925 ft 476 kts 304°
2026-05-07 03:42 50.97111 6.82894 32303 ft 476 kts 304°
2026-05-07 03:43 50.99012 6.78587 32644 ft 476 kts 304°